Location: Gollag?dem
(17.0207°N, 80.7261°E)
Time: 05:40:33
(UTC+00:00)

CENTAUR R/B - Pass Details

Date: 03 August 2024
Orbit: 663 x 1521 km, 63.4° (Epoch: 10 September)

Event Time Altitude Azimuth Distance (km) Brightness Sun altitude
Rises 16:59:52 0° 335° (NNW) 4,511 6.6 -47.3°
Reaches altitude 10° 17:02:44 10° 335° (NNW) 3,596 5.9 -47.7°
Enters shadow 17:07:36 37° 335° (NNW) 2,174 4.4 -48.4°
